Location: Huppendorf
(49.9333°N, 11.1500°E)
Time: 17:05:03
(UTC+00:00)

Lacrosse 5 - Pass Details

Date: 27 February 2020
Orbit: 715 x 724 km, 57.0° (Epoch: 21 March)

Event Time Altitude Azimuth Distance (km) Brightness Sun altitude
Rises 20:29:56 0° 261° (W) 3,115 5.8 -34.4°
Reaches altitude 10° 20:32:24 10° 267° (W) 2,198 4.9 -34.7°
Enters shadow 20:34:52 27° 282° (WNW) 1,364 3.7 -35.0°
